Location: Newark
(41.9000°N, 12.4833°E)
Time: 18:03:33
(UTC+00:00)

EO-88 - Pass Details

Date: 25 May 2019
Orbit: 484 x 494 km, 97.4° (Epoch: 19 June)

Event Time Altitude Azimuth Distance (km) Brightness Sun altitude
Exits shadow 21:26:58 23° 252° (WSW) 1,081 ? -23.0°
Maximum altitude 21:27:26 24° 265° (W) 1,062 ? -23.0°
Drops below altitude 10° 21:30:27 10° 320° (NW) 1,698 ? -23.2°
Sets 21:32:50 0° 335° (NNW) 2,587 ? -23.4°
